Location: Austin
(30.3000°N, 97.7500°W)
Time: 12:47:56
(UTC-06:00)

Atlas Centaur 2 - Pass Details

Date: 04 November 2025
Orbit: 456 x 1252 km, 30.4° (Epoch: 06 November)

Event Time Altitude Azimuth Distance (km) Brightness Sun altitude
Rises 19:16:20 0° 265° (W) 2,929 6.6 -21.0°
Reaches altitude 10° 19:19:16 10° 244° (WSW) 2,163 5.3 -21.6°
Maximum altitude 19:22:30 17° 205° (SSW) 1,893 4.4 -22.3°
Drops below altitude 10° 19:26:10 10° 166° (SSE) 2,506 4.6 -23.1°
Enters shadow 19:27:57 - 156° (SSE) 3,004 4.9 -23.5°
